Torna al catalogo

STARLINK-31046

AttivoComunicazioniVLEO
NORAD 58552·PAYLOAD·🇺🇸 United States

Lanciato Dec 8, 2023 da Vandenberg Space Force Base

Loading…

Prossimi Passaggi (prossime 24 ore)

TLE

AggiornatoSource: CelesTrak SupGP

Epoca: Sep 14, 2026, 14:36 UTC

1 58552C 23192X   26257.60881944 -.00021166  00000+0 -62552-3 0  2571
2 58552  53.1582 261.4366 0001282  82.3047 263.1176 15.34392584    17

Traccia STARLINK-31046 in tempo reale con AllMySat

Download on the App Store